Starlink 3172

operational
NORAD ID: 51139 Int'l Des: 2022-005 Owner: SPXS Country: US Constellation: starlink
LEOCIRCULAR

Über Starlink 3172

Beschreibung wird geladen...

Live-Position

3D-Globus wird geladen...

Nächste Überflüge

Höhenverlauf

Altitude vs Time

uPlot chart will show altitude changes over time

Zweizeiliger Elementsatz

1 51139U 22005AM 26061.15875000 .00001872 00000-0 13565-3 0 9990
2 51139 53.2174 332.9419 0001388 91.2306 268.8845 15.08845746227601
Epoch: 2. März 2026 • Age: 36 hours

Aktueller Status

Höhe 539.6 km
Geschwindigkeit 7.60 km/s
Subsatellitenpunkt 17.53°N, 147.46°E
Startdatum 19. Jan. 2022
Alter 4.1 years
Typ internet

Technische Details

Klassifizierung Payload
Masse 297.00 kg
Trockenmasse 275.00 kg
Gesamtmasse 297.00 kg
Länge 0.20 m
Durchmesser 2.80 m
Spannweite 9.00 m
Form Box + pan
Hersteller SPXS
Bus-Typ Starlink
Phasenstatus In Orbit
Besitzer/Staat SPXS/US

Große Konstellationen

Loading constellations...